Weather History for KS32 - December, 2012

Change the Weather History Date:

Friday, December 7, 2012

  Actual Average (KJMS) Record (KJMS)
Temperature  
Mean Temperature 12 °F 17 °F  
Max Temperature 15 °F 25 °F 61 °F (1939)
Min Temperature 8 °F 8 °F -24 °F (1906)
Degree Days  
Heating Degree Days 54 48  
Month to date heating degree days 330  
Since 1 July heating degree days 2414  
Cooling Degree Days 0 0  
Month to date cooling degree days 0  
Year to date cooling degree days 446  
Moisture  
Dew Point 10 °F    
Average Humidity 89    
Maximum Humidity 100    
Minimum Humidity 79    
Precipitation  
Precipitation 0.00 in 0.01 in 0.31 in (1963)
Month to date precipitation 0.10  
Year to date precipitation 18.47  
Sea Level Pressure  
Sea Level Pressure 30.02 in    
Wind  
Wind Speed 6 mph (NE)    
Max Wind Speed 15 mph    
Max Gust Speed -    
Visibility 10 miles    
Events Snow    
T = Trace of Precipitation, MM = Missing Value Source: NWS Daily Summary

Daily Weather History Graph

Daily Weather History Graph

Search for Another Location

Airport or City:

Trip Planner

Search our weather history database for the weather conditions in past years. The results will help you decide how hot, cold, wet, or windy it might be!

Date:

Astronomy

Dec. 07, 2012 Rise Set
Actual Time 8:06 AM CST 4:41 PM CST
Civil Twilight 7:30 AM CST 5:17 PM CST
Nautical Twilight 6:52 AM CST 5:56 PM CST
Astronomical Twilight 6:14 AM CST 6:33 PM CST
Moon 1:03 AM CST (12/7) 1:00 PM CST (12/7)
Length of Visible Light 9h 46m
Length of Day
8h 35m
Last Quarter, 38% of the Moon is Illuminated
Dec 7
Last Quarter
Dec 13
New
Dec 19
First Quarter
Dec 28
Full
Jan 4
Last Quarter

Hourly Weather History & Observations

Time (CST) Temp. Windchill Dew Point Humidity Pressure Visibility Wind Dir Wind Speed Gust Speed Precip Events Conditions
12:15 AM 14.0 °F 5.1 °F 14.0 °F 100% 29.97 in 10.0 mi NNW 5.8 mph - N/A   Clear
12:35 AM 14.0 °F 8.2 °F 14.0 °F 100% 29.97 in 10.0 mi NNW 3.5 mph - N/A   Clear
12:55 AM 14.0 °F 8.2 °F 14.0 °F 100% 29.97 in 10.0 mi NW 3.5 mph - N/A   Clear
1:15 AM 14.0 °F 8.2 °F 14.0 °F 100% 29.97 in 9.0 mi North 3.5 mph - N/A   Clear
1:35 AM 14.0 °F - 14.0 °F 100% 29.97 in 9.0 mi Calm Calm - N/A   Clear
1:55 AM 10.4 °F 4.0 °F 10.4 °F 100% 29.97 in 8.0 mi North 3.5 mph - N/A   Clear
2:15 AM 12.2 °F 2.9 °F 12.2 °F 100% 29.98 in 8.0 mi North 5.8 mph - N/A   Clear
2:35 AM 12.2 °F 4.3 °F 12.2 °F 100% 29.99 in 10.0 mi North 4.6 mph - N/A   Clear
2:55 AM 12.2 °F 0.7 °F 12.2 °F 100% 29.98 in 10.0 mi North 8.1 mph - N/A   Clear
3:15 AM 12.2 °F 2.9 °F 10.4 °F 92% 29.98 in 10.0 mi North 5.8 mph - N/A   Clear
3:35 AM 12.2 °F 2.9 °F 10.4 °F 92% 29.98 in 10.0 mi North 5.8 mph - N/A   Clear
3:55 AM 10.4 °F - 8.6 °F 92% 29.99 in 10.0 mi Calm Calm - N/A   Clear
4:15 AM 10.4 °F - 8.6 °F 92% 30.00 in 10.0 mi Calm Calm - N/A   Clear
4:35 AM 8.6 °F - 8.6 °F 100% 30.00 in 10.0 mi Calm Calm - N/A   Clear
4:55 AM 10.4 °F - 8.6 °F 92% 30.01 in 10.0 mi Calm Calm - N/A   Scattered Clouds
5:15 AM 10.4 °F 2.2 °F 8.6 °F 92% 30.00 in 10.0 mi NE 4.6 mph - N/A   Mostly Cloudy
5:35 AM 10.4 °F 4.0 °F 8.6 °F 92% 30.01 in 10.0 mi North 3.5 mph - N/A   Partly Cloudy
5:55 AM 8.6 °F 0.1 °F 6.8 °F 92% 30.00 in 10.0 mi North 4.6 mph - N/A   Clear
6:15 AM 10.4 °F 0.8 °F 8.6 °F 92% 30.00 in 10.0 mi North 5.8 mph - N/A   Clear
6:35 AM 10.4 °F -0.4 °F 6.8 °F 85% 30.00 in 10.0 mi NNW 6.9 mph - N/A   Clear
6:55 AM 10.4 °F 0.8 °F 6.8 °F 85% 30.01 in 10.0 mi North 5.8 mph - N/A   Clear
7:15 AM 8.6 °F 0.1 °F 6.8 °F 92% 30.02 in 10.0 mi NNE 4.6 mph - N/A   Clear
7:35 AM 8.6 °F 0.1 °F 6.8 °F 92% 30.03 in 10.0 mi NNE 4.6 mph - N/A   Clear
7:55 AM 8.6 °F -1.3 °F 6.8 °F 92% 30.03 in 10.0 mi North 5.8 mph - N/A   Partly Cloudy
8:15 AM 8.6 °F 0.1 °F 6.8 °F 92% 30.03 in 10.0 mi North 4.6 mph - N/A   Clear
8:35 AM 8.6 °F 0.1 °F 6.8 °F 92% 30.03 in 10.0 mi North 4.6 mph - N/A   Mostly Cloudy
8:55 AM 10.4 °F -2.4 °F 8.6 °F 92% 30.03 in 10.0 mi NNE 9.2 mph - N/A   Overcast
9:15 AM 10.4 °F -6.0 °F 8.6 °F 92% 30.02 in 10.0 mi NNE 15.0 mph - N/A   Overcast
9:35 AM 10.4 °F -4.1 °F 8.6 °F 92% 30.02 in 10.0 mi NNE 11.5 mph - N/A   Mostly Cloudy
9:55 AM 10.4 °F -2.4 °F 8.6 °F 92% 30.03 in 10.0 mi NNE 9.2 mph - N/A   Mostly Cloudy
10:15 AM 10.4 °F 0.8 °F 8.6 °F 92% 30.05 in 10.0 mi NE 5.8 mph - N/A   Overcast
10:35 AM 12.2 °F 2.9 °F 8.6 °F 85% 30.05 in 10.0 mi ENE 5.8 mph - N/A   Overcast
10:55 AM 12.2 °F 2.9 °F 10.4 °F 92% 30.05 in 10.0 mi NE 5.8 mph - N/A   Overcast
11:15 AM 14.0 °F 8.2 °F 10.4 °F 86% 30.05 in 10.0 mi ENE 3.5 mph - N/A   Overcast
11:35 AM 14.0 °F 5.1 °F 10.4 °F 86% 30.05 in 10.0 mi ENE 5.8 mph - N/A   Overcast
11:55 AM 14.0 °F 3.9 °F 10.4 °F 86% 30.04 in 10.0 mi ENE 6.9 mph - N/A   Overcast
12:15 PM 14.0 °F 3.9 °F 10.4 °F 86% 30.04 in 10.0 mi NE 6.9 mph - N/A   Overcast
12:35 PM 14.0 °F 3.9 °F 12.2 °F 93% 30.03 in 10.0 mi NE 6.9 mph - N/A   Overcast
12:55 PM 15.8 °F 5.1 °F 12.2 °F 86% 30.03 in 10.0 mi ENE 8.1 mph - N/A   Overcast
1:15 PM 15.8 °F 5.1 °F 12.2 °F 86% 30.03 in 10.0 mi NE 8.1 mph - N/A   Overcast
1:35 PM 15.8 °F 6.1 °F 12.2 °F 86% 30.03 in 10.0 mi ENE 6.9 mph - N/A   Overcast
1:55 PM 15.8 °F 6.1 °F 12.2 °F 86% 30.03 in 10.0 mi ENE 6.9 mph - N/A   Overcast
2:15 PM 15.8 °F 5.1 °F 12.2 °F 86% 30.03 in 10.0 mi East 8.1 mph - N/A   Overcast
2:35 PM 15.8 °F 5.1 °F 10.4 °F 79% 30.03 in 10.0 mi ENE 8.1 mph - N/A   Overcast
2:55 PM 15.8 °F 4.2 °F 10.4 °F 79% 30.02 in 10.0 mi ENE 9.2 mph - N/A   Overcast
3:15 PM 15.8 °F 4.2 °F 10.4 °F 79% 30.03 in 10.0 mi East 9.2 mph - N/A   Overcast
3:35 PM 15.8 °F 3.4 °F 10.4 °F 79% 30.03 in 10.0 mi ENE 10.4 mph - N/A   Overcast
3:55 PM 15.8 °F 4.2 °F 10.4 °F 79% 30.04 in 10.0 mi ENE 9.2 mph - N/A   Overcast
4:15 PM 15.8 °F 5.1 °F 10.4 °F 79% 30.04 in 10.0 mi ENE 8.1 mph - N/A   Overcast
4:35 PM 15.8 °F 4.2 °F 10.4 °F 79% 30.04 in 10.0 mi East 9.2 mph - N/A   Overcast
4:55 PM 15.8 °F 5.1 °F 10.4 °F 79% 30.03 in 10.0 mi ENE 8.1 mph - N/A   Overcast
5:15 PM 14.0 °F 2.0 °F 10.4 °F 86% 30.03 in 10.0 mi ENE 9.2 mph - N/A   Overcast
5:35 PM 14.0 °F 2.0 °F 10.4 °F 86% 30.03 in 10.0 mi East 9.2 mph - N/A   Overcast
5:55 PM 14.0 °F 2.0 °F 10.4 °F 86% 30.04 in 10.0 mi East 9.2 mph - N/A   Overcast
6:15 PM 14.0 °F 2.9 °F 10.4 °F 86% 30.04 in 10.0 mi East 8.1 mph - N/A   Overcast
6:35 PM 14.0 °F 1.2 °F 10.4 °F 86% 30.05 in 10.0 mi East 10.4 mph - N/A   Overcast
6:55 PM 14.0 °F 2.0 °F 10.4 °F 86% 30.05 in 10.0 mi East 9.2 mph - N/A   Overcast
7:15 PM 14.0 °F 2.0 °F 10.4 °F 86% 30.05 in 10.0 mi ENE 9.2 mph - N/A   Overcast
7:35 PM 14.0 °F 2.9 °F 10.4 °F 86% 30.05 in 10.0 mi ENE 8.1 mph - N/A   Overcast
7:55 PM 14.0 °F 2.0 °F 10.4 °F 86% 30.04 in 10.0 mi ENE 9.2 mph - N/A   Overcast
8:15 PM 14.0 °F 1.2 °F 10.4 °F 86% 30.04 in 10.0 mi East 10.4 mph - N/A   Overcast
8:35 PM 14.0 °F 2.0 °F 10.4 °F 86% 30.04 in 10.0 mi East 9.2 mph - N/A   Overcast
8:55 PM 14.0 °F -0.2 °F 10.4 °F 86% 30.03 in 10.0 mi East 12.7 mph - N/A   Overcast
9:15 PM 14.0 °F 1.2 °F 10.4 °F 86% 30.04 in 10.0 mi East 10.4 mph - N/A   Overcast
9:35 PM 14.0 °F 1.2 °F 10.4 °F 86% 30.03 in 10.0 mi East 10.4 mph - N/A   Overcast
9:55 PM 14.0 °F 0.5 °F 10.4 °F 86% 30.02 in 10.0 mi East 11.5 mph - N/A   Overcast
10:15 PM 12.2 °F -2.5 °F 10.4 °F 92% 30.02 in 10.0 mi East 12.7 mph - N/A   Overcast
10:35 PM 12.2 °F -2.5 °F 8.6 °F 85% 30.02 in 10.0 mi East 12.7 mph - N/A   Overcast
10:55 PM 10.4 °F -3.3 °F 8.6 °F 92% 30.01 in 10.0 mi East 10.4 mph - N/A   Overcast
11:15 PM 10.4 °F -4.1 °F 8.6 °F 92% 30.01 in 10.0 mi East 11.5 mph - N/A   Overcast
11:35 PM 10.4 °F -2.4 °F 8.6 °F 92% 30.00 in 10.0 mi East 9.2 mph - N/A   Overcast
11:55 PM 10.4 °F -4.8 °F 8.6 °F 92% 30.00 in 10.0 mi East 12.7 mph - N/A Snow Light Snow